Temp
20 20 19 19 18 18 18 18 18 18 18 18 18 19 19 19 19 20 20 20 20 21 21 21 21 21 21 21 21 21 21 21 20 19 19 19 19 19 18 18 18 18
20 20 19 19 19 19 19 18 18 18 18 18 18 18 18 18 18 19 19 19 19 19 20 20 20 20 20 20 20 20 20 20 21 20 19 19 19 18 18 17 18 18
20 19 19 19 19 19 19 19 19 18 18 18 18 18 18 18 18 19 19 19 19 19 19 20 20 20 20 19 19 19 19 20 20 21 20 19 20 19 18 18 18 18
19 19 19 19 19 19 19 19 19 19 19 19 19 19 18 18 18 18 19 19 19 19 19 19 19 19 19 19 18 18 19 19 19 20 20 20 20 20 19 18 18 18
19 19 19 19 19 19 18 18 18 19 19 19 19 18 18 18 18 18 18 18 17 17 17 17 17 17 18 18 18 18 18 18 19 19 19 19 19 19 19 18 18 18
19 19 19 19 19 19 19 18 18 18 18 18 18 18 18 18 18 18 18 17 17 17 17 17 17 17 17 17 17 17 17 18 18 18 18 18 19 19 19 18 18 18
19 19 19 19 19 19 19 18 18 18 18 18 18 18 18 18 18 18 18 18 17 17 17 17 17 17 17 17 17 17 17 17 18 18 18 18 18 18 18 18 18 18
19 19 19 19 19 19 19 18 18 18 18 18 18 18 18 18 18 18 18 18 17 17 17 17 17 17 16 16 17 17 17 17 17 18 18 18 18 18 18 18 18 17
19 19 19 19 19 19 19 18 19 19 18 18 18 18 18 18 18 18 18 18 17 17 17 17 17 16 16 16 16 16 17 17 17 17 18 18 18 18 18 18 18 18
20 19 19 19 18 18 19 18 19 19 18 18 18 18 18 18 18 17 17 17 17 17 17 17 16 16 16 16 16 16 16 17 17 17 17 18 18 18 18 18 18 18
20 19 19 19 19 19 19 19 19 19 19 19 18 18 18 18 18 17 17 17 17 17 17 16 16 16 16 16 16 16 16 16 17 17 17 17 17 18 18 18 18 17
20 19 19 19 19 19 19 19 19 19 19 19 18 18 18 18 18 17 17 17 17 17 16 16 16 16 16 16 16 16 16 16 16 17 17 17 17 17 17 17 17 17
20 20 19 19 19 19 19 19 19 19 18 18 18 18 18 18 18 18 17 17 17 17 17 16 16 16 16 16 16 16 16 16 16 17 17 17 17 17 17 17 17 17
20 20 20 19 19 19 19 19 19 19 18 18 18 18 18 18 18 17 17 17 17 17 17 16 16 16 16 16 16 16 16 16 16 16 17 17 17 17 17 17 17 17
20 20 20 19 19 19 19 19 19 19 19 18 18 18 18 18 18 18 17 17 17 17 17 16 16 16 15 15 16 16 16 16 16 16 16 17 17 17 17 17 17 17
20 20 20 20 19 19 19 19 19 19 19 19 19 19 18 18 18 18 18 18 18 17 16 16 16 16 16 15 16 16 16 15 15 16 16 16 16 16 17 17 17 17
20 20 20 20 20 19 19 19 19 19 19 19 19 19 19 18 18 18 18 18 18 17 16 16 16 16 16 16 16 16 15 15 15 15 16 16 16 16 16 17 17 17
20 20 20 20 20 20 20 19 19 19 19 19 19 19 19 19 19 19 19 18 17 17 16 16 16 16 16 16 15 16 16 15 15 15 16 16 16 17 17 17 17 17
20 20 20 20 20 20 20 19 19 19 19 19 19 19 19 19 19 19 19 18 17 17 16 16 16 16 16 15 15 16 16 16 16 16 16 16 16 17 17 17 17 17
20 20 20 20 20 20 19 19 19 19 19 19 19 19 19 19 19 19 19 18 17 16 16 16 16 16 16 15 15 16 16 16 16 16 16 16 17 17 17 17 17 17
20 20 20 20 20 19 19 20 19 19 19 19 19 19 19 19 19 19 19 18 17 17 16 16 16 16 16 15 15 16 16 15 15 15 16 17 17 17 17 17 16 17
20 20 20 20 20 20 20 20 20 20 20 20 20 20 20 19 19 19 19 18 17 17 16 16 16 16 16 15 15 16 16 15 15 15 15 16 16 16 16 17 16 17
21 20 20 20 20 20 20 20 20 20 20 19 19 19 20 20 19 19 19 18 18 17 16 16 16 16 16 15 15 16 16 15 15 15 14 14 14 15 15 16 16 16
21 20 20 20 20 20 20 20 20 20 19 19 19 19 20 20 20 20 19 18 18 17 17 16 16 16 16 16 15 15 15 15 14 14 14 13 13 14 14 14 14 15
21 20 20 20 20 20 20 20 20 19 19 19 19 19 19 20 20 20 20 19 18 17 17 17 16 16 16 16 15 15 15 15 14 14 14 13 13 13 13 13 14 14
21 20 20 20 20 20 20 20 20 20 20 20 20 20 19 19 20 20 20 19 19 18 17 17 17 16 16 16 15 15 15 15 15 14 13 13 13 13 13 13 13 13
Height
798 797 795 794 792 791 790 789 789 788 787 786 785 784 784 784 783 783 783 782 782 781 781 782 782 782 781 781 781 781 781 781 781 781 781 781 781 781 782 784 785 786
797 796 795 793 791 790 789 788 787 786 786 785 784 784 783 783 783 782 782 781 780 780 780 779 778 778 778 777 777 777 777 777 777 777 777 776 777 777 778 780 781 782
796 795 794 792 790 789 787 786 785 784 784 783 782 782 782 781 781 780 779 779 778 777 777 776 775 774 774 773 773 773 773 773 772 772 772 772 772 773 774 775 776 776
795 794 792 791 789 787 786 785 784 783 782 781 780 780 780 779 779 778 777 777 776 775 774 773 772 771 770 770 769 769 768 768 768 768 768 768 768 769 769 770 771 772
794 793 791 790 788 786 785 784 783 782 780 780 779 778 778 777 776 775 775 775 774 773 772 771 770 768 767 766 765 765 764 763 764 764 764 763 764 764 765 766 767 767
793 792 790 789 787 786 784 783 782 780 779 778 777 776 776 775 774 774 773 772 772 771 769 768 767 765 763 762 761 761 760 759 759 759 759 759 759 760 760 761 762 763
792 791 789 788 786 785 784 782 781 780 778 777 776 775 774 773 773 772 771 770 769 768 766 764 763 762 760 759 757 756 755 755 755 755 755 754 755 755 756 757 758 758
791 790 788 787 785 784 783 781 780 778 777 776 775 774 773 772 771 770 769 768 767 765 763 761 759 757 757 756 754 752 750 750 750 750 750 750 750 751 751 752 753 753
790 789 787 786 784 783 781 780 778 777 776 775 774 773 772 771 770 768 767 766 764 762 759 757 755 753 752 752 750 748 745 744 744 744 745 745 745 746 747 748 748 749
789 788 787 785 784 782 780 779 778 776 775 774 773 772 771 770 768 766 765 764 762 759 756 754 751 750 749 748 746 743 741 740 739 739 740 740 740 741 742 742 743 744
788 787 786 784 783 781 779 778 777 775 774 773 772 771 769 768 766 764 763 761 759 757 753 750 748 747 746 744 741 739 737 736 735 735 735 735 736 736 736 737 738 738
786 785 785 783 782 780 779 777 776 774 773 772 771 769 768 766 764 762 761 759 757 754 751 748 746 744 743 741 738 735 733 733 732 732 732 731 732 732 732 733 733 734
785 784 783 782 781 779 778 776 774 773 771 770 769 767 766 764 762 761 759 757 755 752 750 747 744 742 740 738 735 732 730 729 729 728 728 728 728 728 728 728 729 729
784 783 782 781 780 778 776 775 773 772 770 768 767 766 764 763 761 759 757 756 753 751 748 745 742 740 738 736 733 731 729 728 727 725 724 724 724 724 724 724 724 724
782 781 780 779 778 776 775 773 771 770 768 767 766 764 763 761 760 758 756 754 752 749 747 744 742 740 737 735 732 729 727 726 724 722 720 719 718 718 719 719 719 718
781 780 778 777 776 775 773 772 770 768 767 765 764 763 761 760 758 757 754 752 750 748 746 744 741 739 736 734 731 729 726 723 721 718 716 714 713 713 713 713 713 712
779 778 777 776 774 773 772 770 768 767 765 764 763 761 760 758 757 755 753 751 749 747 746 743 740 738 735 732 729 726 723 720 717 714 711 709 708 707 707 706 706 705
778 777 776 775 773 772 770 769 767 765 764 763 761 760 758 756 755 753 751 749 748 747 745 742 740 737 733 730 726 722 718 714 711 708 706 704 703 702 701 700 700 699
777 776 775 774 772 771 769 767 766 764 762 761 759 758 756 754 753 751 750 749 747 746 744 742 739 736 732 729 725 720 715 710 705 703 701 699 698 697 696 695 694 693
777 775 774 773 771 770 768 766 764 762 761 759 757 756 754 752 751 750 749 748 747 745 743 741 738 735 732 728 724 719 714 708 703 699 696 695 694 693 692 691 689 688
775 774 773 772 770 769 767 765 763 761 759 758 756 754 752 750 749 748 748 747 746 744 742 740 738 734 731 727 723 718 712 707 701 696 693 692 691 690 689 687 685 682
774 773 772 770 769 767 766 764 763 760 759 757 755 753 751 749 748 747 746 746 745 743 741 739 736 733 730 727 722 717 712 706 701 696 692 690 689 688 687 685 681 678
773 772 770 769 768 766 765 763 762 760 758 756 754 752 749 748 746 745 745 744 743 742 740 738 735 732 729 726 722 717 712 707 703 699 695 692 690 688 685 683 680 676
772 770 769 768 766 765 764 762 761 759 757 755 753 751 749 747 746 744 743 743 741 740 739 737 735 732 729 726 722 719 715 710 707 703 699 696 693 690 686 683 680 678
770 769 768 767 765 764 763 762 760 758 756 754 752 751 749 747 745 744 743 741 740 739 738 736 734 731 729 727 723 720 717 713 710 707 703 700 697 694 690 686 684 682
769 768 767 766 765 763 762 761 760 758 756 753 751 750 749 747 745 744 743 741 739 738 737 736 734 731 729 727 724 722 719 715 712 709 706 704 702 699 695 691 690 690
Wind_Speed
15 15 16 17 17 17 17 17 16 15 13 12 13 14 14 14 13 14 17 18 19 21 23 25 26 26 26 27 28 29 30 29 28 30 32 33 33 34 35 37 37 34
12 13 14 15 16 16 15 15 14 14 14 14 14 15 15 16 15 16 17 18 19 21 24 27 29 29 28 29 29 31 32 32 32 31 31 33 33 33 35 36 36 35
11 12 13 15 16 16 15 14 14 14 15 14 13 13 13 14 14 15 16 17 19 22 24 26 29 30 30 29 30 31 33 34 34 33 32 34 33 33 35 35 35 36
11 11 12 13 14 14 14 14 14 14 15 15 13 13 13 13 14 14 15 16 19 21 23 25 27 30 30 30 30 30 33 34 34 33 33 34 34 33 34 33 34 36
12 11 11 12 12 13 13 13 14 14 14 14 14 13 13 13 14 15 15 16 17 19 22 24 26 28 29 30 29 30 32 33 34 34 34 35 35 34 35 34 34 35
12 12 11 12 11 12 13 13 13 13 13 14 14 13 13 13 13 14 15 17 17 18 21 23 25 27 28 29 30 30 31 33 33 34 34 35 35 35 34 34 33 34
12 12 12 12 11 10 10 11 12 13 14 14 14 13 13 12 13 14 15 17 18 19 22 24 25 26 26 28 30 31 32 33 33 33 34 35 34 34 33 33 33 34
11 11 11 12 11 10 9 10 12 14 15 15 15 14 13 12 13 15 16 18 20 22 23 25 26 26 26 26 28 31 32 33 33 32 32 32 32 32 32 32 32 33
10 10 11 12 13 11 10 10 12 13 15 16 16 15 14 14 14 16 18 20 22 23 25 26 27 27 27 27 28 30 32 32 32 31 30 30 30 31 31 31 31 33
9 10 12 14 14 12 11 11 12 13 14 15 16 16 16 16 17 18 19 21 23 24 26 28 28 28 27 27 27 28 29 30 30 30 30 30 31 32 32 30 31 32
9 10 12 14 14 13 12 12 13 13 14 14 15 16 17 18 20 20 21 22 24 25 27 28 28 27 26 27 26 24 25 27 28 29 29 29 30 31 31 31 32 33
9 10 12 13 13 13 13 13 14 14 15 16 17 18 19 20 21 21 22 23 24 25 27 28 27 26 24 24 24 23 22 23 25 26 27 28 28 29 30 30 31 33
10 10 12 13 13 14 14 15 14 14 15 16 17 18 19 20 22 22 22 23 25 26 27 27 27 25 22 21 22 22 22 22 23 25 26 26 26 27 29 30 31 32
11 11 12 13 14 15 16 16 16 15 15 16 17 17 17 19 22 24 24 23 25 26 27 27 25 22 21 21 22 21 19 19 21 22 25 28 28 28 29 31 32 34
10 11 12 13 15 16 16 17 16 16 16 17 17 16 16 18 20 23 24 24 25 25 24 25 23 21 22 23 23 22 21 20 20 21 23 27 30 30 30 31 33 35
11 11 11 12 14 15 16 17 17 16 15 16 17 16 16 17 19 21 23 23 23 23 22 21 20 22 24 24 23 23 24 23 22 23 23 24 27 30 31 32 34 36
11 11 11 12 13 15 16 17 17 17 16 16 16 16 17 19 20 20 21 22 22 22 21 19 19 22 25 26 26 26 26 25 24 24 24 24 25 28 31 33 35 36
11 11 12 13 14 16 17 17 17 18 17 17 16 15 17 18 18 18 19 20 20 20 19 18 19 23 25 26 29 30 30 29 28 26 25 24 25 27 30 33 35 36
11 12 13 14 16 18 19 18 18 18 17 17 16 16 16 15 14 14 16 18 18 18 16 17 19 22 24 26 29 32 31 29 28 27 24 23 24 26 28 30 32 34
12 13 14 16 19 20 19 18 18 17 16 15 16 17 17 15 13 12 13 15 16 15 15 16 19 21 24 26 29 33 32 28 25 24 22 21 22 24 25 28 30 31
14 15 16 18 20 19 16 15 16 16 15 14 16 17 18 18 14 11 11 12 13 13 13 15 18 21 24 26 29 33 33 29 26 23 19 18 18 18 21 24 26 27
15 17 18 20 19 16 13 13 14 15 14 14 15 17 17 18 14 9 9 10 11 10 12 15 17 20 24 26 28 33 34 31 30 25 17 10 10 12 14 16 18 20
14 16 19 20 17 13 12 13 13 15 15 15 16 17 16 15 12 9 8 10 10 10 11 13 16 19 23 25 27 31 33 32 31 29 23 19 17 14 10 8 8 7
13 15 18 18 15 12 12 13 14 15 16 16 16 16 14 12 11 9 9 10 10 9 10 12 14 16 20 23 25 29 30 29 29 29 28 25 23 23 25 24 20 14
13 14 15 15 13 12 12 14 15 16 17 16 15 13 11 11 11 10 10 11 11 10 9 11 13 14 18 21 22 26 27 27 27 28 30 29 26 26 31 34 33 30
12 13 12 12 12 12 12 13 14 14 15 15 12 10 10 10 11 11 12 13 13 11 9 10 12 13 16 18 19 21 24 24 25 25 27 28 27 26 29 33 34 35
Wind_Direction
339 339 340 339 335 333 328 323 322 322 317 308 303 304 304 303 299 293 292 288 279 274 275 277 278 278 276 274 273 271 269 265 260 257 255 251 249 246 242 239 239 239
333 332 331 330 329 329 330 326 324 323 321 317 310 306 304 301 297 291 291 290 282 276 276 278 279 279 277 274 271 268 265 263 260 257 251 248 249 245 238 239 242 241
328 327 324 322 321 320 319 319 319 319 318 317 313 310 304 299 297 294 291 289 285 282 281 281 280 279 277 274 271 267 263 260 259 257 250 246 248 247 244 245 245 241
330 328 326 325 324 320 317 314 313 313 313 312 312 311 310 307 305 302 299 295 292 291 288 286 283 280 278 274 268 265 263 258 257 255 248 245 247 247 246 244 242 240
334 333 335 338 336 330 324 320 318 316 313 312 313 315 314 315 315 314 314 311 306 302 299 294 291 287 284 278 269 262 258 256 253 250 244 243 243 244 244 241 237 238
337 336 336 339 341 338 333 332 332 327 321 315 313 315 318 320 323 323 323 321 318 314 308 303 299 293 288 283 274 264 257 253 252 248 242 241 242 241 241 238 235 236
337 335 332 331 332 334 333 338 342 338 332 323 315 317 322 323 325 326 325 323 321 317 313 308 302 295 289 283 276 268 261 255 253 249 243 241 240 239 239 237 236 237
337 338 336 329 325 323 324 333 343 343 338 329 321 320 321 320 321 324 325 325 321 317 314 309 303 297 292 286 277 269 262 257 254 250 245 242 239 237 237 235 235 235
330 340 342 334 327 319 314 321 331 337 338 332 323 318 316 314 314 318 323 324 321 318 315 310 305 299 294 290 281 271 261 256 254 250 247 242 238 237 237 234 231 231
326 336 340 337 332 322 314 317 322 330 336 332 324 316 313 311 310 312 316 319 319 318 317 313 308 304 300 295 287 276 264 257 255 254 250 245 240 238 238 235 231 230
328 334 338 339 337 332 325 320 320 325 331 333 330 324 318 316 314 313 313 316 317 317 317 316 312 309 306 302 296 284 270 264 261 258 254 248 242 240 239 237 235 232
330 330 335 338 339 340 338 331 325 324 327 332 335 331 328 325 323 319 315 314 316 318 320 319 317 316 312 309 304 292 276 269 265 260 256 252 249 246 244 241 239 236
330 329 328 330 333 337 340 339 335 331 333 337 335 333 335 333 328 323 319 317 318 320 323 322 319 318 319 320 318 307 289 275 268 262 257 253 251 249 247 244 242 240
329 330 326 325 327 330 335 340 341 340 344 347 341 336 335 331 327 325 322 321 323 323 326 329 325 323 331 337 335 328 311 292 280 271 263 259 257 253 249 247 246 243
326 329 327 325 324 324 329 334 337 340 345 349 345 337 331 326 323 324 323 324 325 324 330 339 338 335 341 343 339 335 327 312 297 286 275 266 260 256 253 250 250 249
318 324 327 327 325 325 326 328 331 336 341 346 346 340 335 329 323 321 323 324 325 325 330 341 343 340 342 343 340 333 326 316 302 289 282 272 260 256 255 254 254 253
310 316 322 327 328 329 328 326 328 331 333 337 339 337 332 326 321 319 321 323 324 325 329 335 339 341 343 343 340 335 327 318 306 290 281 275 263 256 255 256 257 255
305 308 316 324 330 333 332 329 329 331 333 332 331 328 322 319 319 319 319 322 323 324 328 335 339 342 343 342 341 340 333 322 311 296 281 271 265 260 257 257 256 256
306 309 316 323 329 331 330 330 330 332 334 332 329 328 322 319 318 316 317 322 322 323 330 337 339 340 341 342 345 346 340 328 315 302 285 270 266 264 260 258 257 259
310 316 321 326 329 330 330 331 332 332 334 333 334 335 332 328 320 310 316 324 323 323 329 335 338 341 342 345 349 351 348 340 328 312 291 275 270 267 264 263 262 263
316 322 327 330 331 331 333 335 334 333 334 335 339 341 339 337 328 309 311 324 327 325 328 334 338 342 345 347 351 356 356 352 345 332 304 280 275 275 274 274 272 269
321 327 331 334 334 331 333 336 334 334 336 338 342 345 345 344 336 313 302 316 328 329 329 335 340 345 348 349 355 1 3 1 0 356 347 334 321 307 292 286 284 274
320 325 329 332 332 330 332 332 330 333 337 339 341 345 351 351 343 322 297 302 319 329 329 334 342 348 349 351 359 6 7 9 10 9 13 24 24 15 9 359 340 301
315 321 325 328 329 330 333 331 328 331 337 338 340 346 353 355 350 337 311 297 307 322 327 330 338 346 347 350 1 9 11 16 20 19 19 24 30 40 46 45 42 41
312 319 323 328 331 331 332 333 333 336 340 342 345 350 353 354 355 348 331 312 305 311 325 330 330 337 345 349 360 10 15 21 28 31 29 26 26 37 45 47 47 46
313 318 322 333 339 335 334 338 340 345 348 347 349 352 351 351 355 352 344 334 318 306 318 334 331 334 343 350 360 10 16 22 31 39 41 36 31 34 41 44 46 45